Flag for U.S.A. Weather past 2 weeks in Irving, Texas, U.S.A.

Now
78 °F

Clear.


Feels Like: 80 °F
Forecast: 76 / 96 °F
Wind: 5 mph from Southeast

Location: Dallas / Fort Worth International Airport

Current Time: Jul 23, 2014 at 4:54:40 AM

Latest Report: Jul 23, 2014 at 3:53 AM


Visibility: 10 mi

Pressure: 30.05 "Hg

Humidity: 74%

Dew point: 69 °F

Location of IrvingLocation

Historic Weather in Irving — Graph

°F

Irving temperature yesterday

Maximum temperature yesterday: 94 °F (at 6:53 PM)
Minimum temperature yesterday: 77 °F (at 6:53 AM)
Average temperature yesterday: 84 °F

Past Weeks' High & Low Weather Summary

 TemperatureHumidityPressure
High100 °F (Jul 13, 4:53 PM)94% (Jul 18, 5:53 AM)30.14 "Hg (Jul 18, 5:53 AM)
Low65 °F (Jul 18, 5:53 AM)24% (Jul 15, 5:53 PM)29.84 "Hg (Jul 17, 5:53 AM)
Average83 °F59%29.98 "Hg
* Reported Jul 8 2:53 AM — Jul 23 2:53 AM, Irving, Weather by CustomWeather, © 2014

Note: Actual official high and low records may vary slightly from our data, if they occured in-between our weather recording intervals... More about our weather records

Advertising

Irving weather history for previous 24 hours

 ConditionsComfort  
Time TempWeatherWind HumidityBarometerVisibility
2:53 AM
Jul 23
78 °FClear.5 mph74%30.04 "Hg10 mi
12:53 AM82 °FClear.6 mph67%30.03 "Hg10 mi
11:53 PM
Jul 22
84 °FClear.6 mph63%30.03 "Hg10 mi
10:53 PM86 °FClear.8 mph57%30.03 "Hg10 mi
9:53 PM88 °FClear.8 mph52%30.01 "Hg10 mi
8:53 PM89 °FPassing clouds.12 mph53%30.00 "Hg10 mi
7:53 PM92 °FScattered clouds.8 mph47%29.99 "Hg10 mi
6:53 PM94 °FScattered clouds.8 mph46%29.98 "Hg10 mi
11:53 AM90 °FBroken clouds.5 mph57%30.03 "Hg9 mi
10:53 AM88 °FScattered clouds.No wind63%30.04 "Hg8 mi
9:53 AM85 °FPartly sunny.5 mph70%30.04 "Hg6 mi
8:53 AM82 °FBroken clouds.9 mph74%30.05 "Hg6 mi
7:53 AM80 °FMore clouds than sun.5 mph79%30.04 "Hg5 mi
6:53 AM77 °FPassing clouds.5 mph85%30.02 "Hg4 mi
5:53 AM78 °FHigh level clouds.6 mph82%30.01 "Hg6 mi
4:53 AM78 °FPassing clouds.7 mph82%29.99 "Hg6 mi
Weather by CustomWeather, © 2014

See weather overviewHow to use our weather pages